Terug naar catalogus

THORAD AGENA D DEB

ActiefSSO
NORAD 4705·DEBRIS·🇺🇸 United States

Gelanceerd Apr 8, 1970 vanaf Vandenberg Space Force Base

Loading…

Volgende Passages (komende 24 uur)

TLE

VersSource: Space-Track

Epoch: Sep 14, 2026, 08:50 UTC

1 04705U 70025BT  26257.36840370  .00000400  00000-0  60465-3 0  9991
2 04705 100.0554  30.9767 0042132  18.7664   4.7627 13.59071175782427

Volg THORAD AGENA D DEB in realtime met AllMySat

Download on the App Store